When you browse on this site, cookies collect data to enhance your experience and personalize the content and advertising you see.
Visit our Privacy Policy to learn more. By continuing to use the site, you agree to this use of cookies and data.
  • In Portugal
  • List of Countries
  • For 7 days
  • Water Temperature
  • Weather Map
  • Weather Widgets
  • user-avatar
    Login

    Hourly Weather Albany

    Today, 23 September, Monday

    Time Temperature Precipitation Wind Pressure Humidity
    00:00 +8°C° 0 mm 2 mps 770 mmHg 84%
    01:00 +8°C° 0 mm 2 mps 770 mmHg 84%
    02:00 +7°C° 0 mm 3 mps 769 mmHg 85%
    03:00 +7°C° 0 mm 3 mps 769 mmHg 85%
    04:00 +7°C° 0 mm 3 mps 769 mmHg 85%
    05:00 +7°C° 0 mm 3 mps 769 mmHg 85%
    06:00 +8°C° 0 mm 3 mps 769 mmHg 81%
    07:00 +9°C° 0 mm 3 mps 769 mmHg 78%
    08:00 +11°C° 0 mm 3 mps 769 mmHg 75%
    09:00 +13°C° 0 mm 3 mps 769 mmHg 70%
    10:00 +16°C° 0 mm 3 mps 768 mmHg 64%
    11:00 +17°C° 0 mm 3 mps 768 mmHg 59%
    12:00 +18°C° 0 mm 3 mps 767 mmHg 58%
    13:00 +19°C° 0 mm 4 mps 767 mmHg 57%
    14:00 +20°C° 0 mm 4 mps 766 mmHg 58%
    15:00 +19°C° 0 mm 4 mps 765 mmHg 63%
    16:00 +19°C° 0 mm 4 mps 765 mmHg 68%
    17:00 +18°C° 0 mm 4 mps 765 mmHg 74%
    18:00 +15°C° 0 mm 4 mps 765 mmHg 79%
    19:00 +14°C° 0 mm 5 mps 765 mmHg 84%
    20:00 +12°C° 0 mm 5 mps 765 mmHg 84%
    21:00 +12°C° 0 mm 5 mps 765 mmHg 84%
    22:00 +12°C° 0 mm 5 mps 765 mmHg 83%
    23:00 +10°C° 0 mm 5 mps 765 mmHg 83%

    Tomorrow, 24 September, Tuesday

    Time Temperature Precipitation Wind Pressure Humidity
    00:00 +10°C° 0 mm 5 mps 764 mmHg 83%
    01:00 +10°C° 0 mm 5 mps 763 mmHg 83%
    02:00 +11°C° 0 mm 4 mps 763 mmHg 83%
    03:00 +11°C° 0 mm 4 mps 762 mmHg 79%
    04:00 +11°C° 0 mm 4 mps 762 mmHg 76%
    05:00 +11°C° 0 mm 3 mps 761 mmHg 72%
    06:00 +13°C° 0 mm 4 mps 761 mmHg 67%
    07:00 +14°C° 0 mm 5 mps 761 mmHg 62%
    08:00 +15°C° 0 mm 5 mps 761 mmHg 57%
    09:00 +17°C° 0 mm 6 mps 760 mmHg 54%
    10:00 +20°C° 0 mm 6 mps 760 mmHg 51%
    11:00 +22°C° 0 mm 7 mps 760 mmHg 48%
    12:00 +23°C° 0 mm 7 mps 759 mmHg 48%
    13:00 +24°C° 0 mm 7 mps 759 mmHg 48%
    14:00 +24°C° 0 mm 7 mps 758 mmHg 48%
    15:00 +23°C° 0 mm 6 mps 758 mmHg 55%
    16:00 +22°C° 0 mm 4 mps 758 mmHg 61%
    17:00 +20°C° 0 mm 3 mps 758 mmHg 68%
    18:00 +18°C° 0 mm 3 mps 758 mmHg 74%
    19:00 +16°C° 0 mm 2 mps 758 mmHg 79%
    20:00 +14°C° 0 mm 2 mps 759 mmHg 85%
    21:00 +13°C° 0 mm 2 mps 759 mmHg 86%
    22:00 +13°C° 0 mm 2 mps 758 mmHg 86%
    23:00 +11°C° 0 mm 3 mps 758 mmHg 87%

    Day after tomorrow, 25 September, Wednesday

    Time Temperature Precipitation Wind Pressure Humidity
    00:00 +11°C° 0 mm 3 mps 758 mmHg 86%
    01:00 +10°C° 0 mm 3 mps 758 mmHg 84%
    02:00 +10°C° 0 mm 4 mps 758 mmHg 83%
    03:00 +10°C° 0 mm 4 mps 758 mmHg 86%
    04:00 +10°C° 0 mm 4 mps 758 mmHg 89%
    05:00 +10°C° 0 mm 4 mps 758 mmHg 92%
    06:00 +11°C° 0 mm 4 mps 758 mmHg 91%
    07:00 +13°C° 0 mm 4 mps 759 mmHg 89%
    08:00 +14°C° 0 mm 4 mps 759 mmHg 88%
    09:00 +15°C° 0.1 mm 4 mps 759 mmHg 81%
    10:00 +16°C° 0.1 mm 5 mps 759 mmHg 75%
    11:00 +17°C° 0.1 mm 5 mps 760 mmHg 68%
    12:00 +17°C° 0.1 mm 5 mps 759 mmHg 68%
    13:00 +17°C° 0.1 mm 5 mps 759 mmHg 68%
    14:00 +17°C° 0.1 mm 5 mps 759 mmHg 68%
    15:00 +16°C° 0 mm 5 mps 759 mmHg 72%
    16:00 +15°C° 0 mm 5 mps 759 mmHg 76%
    17:00 +14°C° 0 mm 5 mps 760 mmHg 80%
    18:00 +14°C° 0 mm 4 mps 760 mmHg 79%
    19:00 +13°C° 0 mm 4 mps 761 mmHg 79%
    20:00 +13°C° 0 mm 3 mps 761 mmHg 79%
    21:00 +12°C° 0 mm 3 mps 761 mmHg 80%
    22:00 +11°C° 0 mm 3 mps 761 mmHg 82%
    23:00 +12°C° 0 mm 2 mps 761 mmHg 84%

    26 September, Thursday

    Time Temperature Precipitation Wind Pressure Humidity
    00:00 +10°C° 0 mm 2 mps 761 mmHg 86%
    01:00 +10°C° 0 mm 2 mps 761 mmHg 88%
    02:00 +9°C° 0 mm 2 mps 761 mmHg 90%
    03:00 +9°C° 0 mm 2 mps 761 mmHg 91%
    04:00 +9°C° 0 mm 2 mps 761 mmHg 92%
    05:00 +8°C° 0 mm 2 mps 761 mmHg 92%
    06:00 +10°C° 0.1 mm 2 mps 762 mmHg 89%
    07:00 +12°C° 0.1 mm 2 mps 762 mmHg 86%
    08:00 +13°C° 0.1 mm 2 mps 762 mmHg 82%
    09:00 +12°C° 0.4 mm 3 mps 763 mmHg 85%
    10:00 +13°C° 0.4 mm 3 mps 763 mmHg 88%
    11:00 +13°C° 0.4 mm 4 mps 763 mmHg 91%
    12:00 +12°C° 0.2 mm 4 mps 763 mmHg 91%
    13:00 +12°C° 0.2 mm 4 mps 763 mmHg 91%
    14:00 +12°C° 0.2 mm 4 mps 762 mmHg 91%
    15:00 +13°C° 0 mm 4 mps 762 mmHg 90%
    16:00 +13°C° 0 mm 4 mps 762 mmHg 88%
    17:00 +13°C° 0 mm 4 mps 762 mmHg 87%
    18:00 +13°C° 0 mm 4 mps 763 mmHg 87%
    19:00 +12°C° 0 mm 4 mps 763 mmHg 87%
    20:00 +12°C° 0 mm 3 mps 763 mmHg 87%
    21:00 +12°C° 0 mm 3 mps 763 mmHg 87%
    22:00 +12°C° 0 mm 3 mps 763 mmHg 88%
    23:00 +12°C° 0 mm 3 mps 763 mmHg 88%

    27 September, Friday

    Time Temperature Precipitation Wind Pressure Humidity
    00:00 +12°C° 0 mm 3 mps 763 mmHg 89%
    01:00 +12°C° 0 mm 3 mps 763 mmHg 89%
    02:00 +12°C° 0 mm 3 mps 762 mmHg 90%
    03:00 +12°C° 0.1 mm 3 mps 762 mmHg 90%
    04:00 +12°C° 0.1 mm 3 mps 762 mmHg 91%
    05:00 +12°C° 0.1 mm 3 mps 762 mmHg 92%
    06:00 +13°C° 0.1 mm 3 mps 762 mmHg 91%
    07:00 +13°C° 0.1 mm 3 mps 762 mmHg 90%
    08:00 +14°C° 0.1 mm 3 mps 762 mmHg 89%
    09:00 +16°C° 0.2 mm 3 mps 762 mmHg 85%
    10:00 +17°C° 0.2 mm 3 mps 762 mmHg 80%
    11:00 +18°C° 0.2 mm 3 mps 761 mmHg 75%
    12:00 +18°C° 0.1 mm 4 mps 761 mmHg 75%
    13:00 +18°C° 0.1 mm 4 mps 760 mmHg 75%
    14:00 +17°C° 0.1 mm 5 mps 760 mmHg 74%
    15:00 +18°C° 0 mm 4 mps 760 mmHg 75%
    16:00 +17°C° 0 mm 4 mps 760 mmHg 77%
    17:00 +17°C° 0 mm 4 mps 760 mmHg 78%
    18:00 +16°C° 0 mm 3 mps 760 mmHg 82%
    19:00 +14°C° 0 mm 3 mps 760 mmHg 85%
    20:00 +14°C° 0 mm 2 mps 761 mmHg 88%
    21:00 +14°C° 0 mm 2 mps 761 mmHg 89%
    22:00 +14°C° 0 mm 2 mps 761 mmHg 89%
    23:00 +14°C° 0 mm 2 mps 761 mmHg 90%

    28 September, Saturday

    Time Temperature Precipitation Wind Pressure Humidity
    00:00 +14°C° 0.1 mm 2 mps 761 mmHg 91%
    01:00 +14°C° 0.1 mm 2 mps 761 mmHg 92%
    02:00 +14°C° 0.1 mm 2 mps 760 mmHg 92%
    03:00 +13°C° 0 mm 1 mps 760 mmHg 93%
    04:00 +13°C° 0 mm 1 mps 760 mmHg 93%
    05:00 +12°C° 0 mm 1 mps 760 mmHg 94%
    06:00 +13°C° 0 mm 1 mps 761 mmHg 91%
    07:00 +14°C° 0 mm 1 mps 761 mmHg 89%
    08:00 +14°C° 0 mm 0 mps 761 mmHg 86%
    09:00 +18°C° 0 mm 1 mps 761 mmHg 81%
    10:00 +18°C° 0 mm 2 mps 761 mmHg 76%
    11:00 +19°C° 0 mm 3 mps 761 mmHg 71%
    12:00 +18°C° 0 mm 3 mps 761 mmHg 72%
    13:00 +18°C° 0 mm 3 mps 761 mmHg 74%
    14:00 +18°C° 0 mm 3 mps 761 mmHg 75%
    15:00 +17°C° 0 mm 3 mps 761 mmHg 76%
    16:00 +17°C° 0 mm 3 mps 761 mmHg 77%
    17:00 +17°C° 0 mm 3 mps 761 mmHg 79%
    18:00 +16°C° 0 mm 3 mps 761 mmHg 83%
    19:00 +13°C° 0 mm 3 mps 762 mmHg 88%
    20:00 +12°C° 0 mm 3 mps 762 mmHg 92%
    21:00 +12°C° 0 mm 3 mps 762 mmHg 93%
    22:00 +11°C° 0 mm 3 mps 762 mmHg 93%
    23:00 +11°C° 0 mm 3 mps 762 mmHg 94%
    Show more